Probability
0 0 0 0 0 0 0 0 0 0 0 0 0 0 0 0 0 0 0 3 10 23 23 16 26 45 65 74 84 90 97 81 58 32 19 3 0 0 0 0 0 0 0 0
0 0 0 0 0 0 0 0 0 0 0 0 0 0 0 0 0 0 0 0 3 10 6 10 13 23 45 65 58 68 81 65 61 35 10 0 0 0 0 0 0 0 0 0
0 0 0 0 0 0 0 0 0 0 0 0 0 0 0 0 0 0 0 0 0 0 6 10 13 13 29 48 48 58 68 58 32 6 0 0 0 0 0 0 0 0 0 0
0 0 0 0 0 0 0 0 0 0 0 0 0 0 0 0 0 0 0 0 0 3 6 6 3 6 16 32 35 48 35 16 10 0 0 0 0 0 0 0 0 0 0 0
0 0 0 0 0 0 0 0 0 0 0 0 0 0 0 0 0 0 0 0 0 3 3 6 3 3 6 23 42 29 13 6 0 0 0 0 0 0 0 0 0 0 0 0
0 0 0 0 0 0 0 0 0 0 0 0 0 0 0 0 0 0 0 0 3 6 3 3 3 3 16 32 39 26 6 0 0 0 0 0 0 0 0 0 0 0 0 0
0 0 0 0 0 0 0 0 0 0 0 0 0 0 0 0 16 29 10 16 26 23 16 6 0 3 16 23 19 10 0 0 0 0 0 0 0 0 0 0 0 0 0 0
0 0 0 0 0 0 0 0 0 0 0 0 0 0 0 16 42 29 26 32 48 48 39 10 0 6 10 3 0 0 0 0 0 0 0 0 0 0 0 0 0 0 0 0
0 0 0 0 0 0 0 0 0 0 0 0 0 0 0 29 39 35 26 23 26 35 26 10 3 0 0 0 0 0 0 0 0 0 0 0 0 0 0 0 0 0 0 0
0 0 0 0 0 0 0 0 0 0 0 0 0 0 0 3 29 35 26 16 23 16 10 6 0 0 0 0 0 0 0 0 0 0 0 0 0 0 0 0 0 0 0 0
0 0 0 0 0 0 0 0 0 0 0 0 0 0 0 0 29 32 23 13 6 3 0 0 0 0 0 0 0 0 0 0 0 0 0 0 0 0 0 0 0 0 0 0
0 0 0 0 0 0 0 0 0 0 0 0 0 0 3 16 26 19 6 3 3 0 0 0 0 0 0 0 0 0 0 0 0 0 0 0 0 0 0 0 0 0 0 0
0 0 0 0 0 0 0 0 0 0 0 0 0 0 35 32 19 6 3 3 0 0 0 0 0 0 0 0 0 0 0 0 0 0 0 0 0 0 0 0 0 0 0 0
0 0 0 0 0 0 0 0 0 0 0 0 0 0 19 19 6 3 0 0 0 0 0 0 0 0 0 0 0 0 0 0 0 0 0 0 0 0 0 0 0 0 0 0
0 0 0 0 0 0 0 0 0 0 0 0 0 0 13 10 3 0 0 0 0 0 0 0 0 0 0 0 0 0 0 0 0 0 0 0 0 0 0 0 0 0 0 0
0 0 0 0 0 0 0 0 0 0 0 0 0 0 3 0 0 0 0 0 0 0 0 0 0 0 0 0 0 0 0 0 0 0 0 0 0 0 0 0 0 0 0 0
0 0 0 0 0 0 0 0 0 0 0 0 0 0 0 0 0 0 0 0 0 0 0 0 0 0 0 0 0 0 0 0 0 0 0 0 0 0 0 0 0 0 0 0
0 0 0 0 0 0 0 0 0 0 0 0 0 0 0 0 0 0 0 0 0 0 0 0 0 0 0 0 0 0 0 0 0 0 0 0 0 0 0 0 0 0 0 0
0 0 0 0 0 0 0 0 0 0 0 0 0 0 0 0 0 0 0 0 0 0 0 0 0 0 0 0 0 0 0 0 0 0 0 0 0 0 0 0 0 0 0 0
0 0 0 0 0 0 0 0 0 0 0 0 0 0 0 0 0 0 0 0 0 0 0 0 0 0 0 0 0 0 0 0 0 0 0 0 0 0 0 0 0 0 0 0
0 0 0 0 0 0 0 0 0 0 0 0 0 0 0 0 0 0 0 0 0 0 0 0 0 0 0 0 0 0 0 0 0 0 0 0 0 0 0 0 0 0 0 0
0 0 0 0 0 0 0 0 0 0 0 0 0 0 0 0 0 0 0 0 0 0 0 0 0 0 0 0 0 0 0 0 0 0 0 0 0 0 0 0 0 0 0 0
0 0 0 0 0 0 0 0 0 0 0 0 0 0 0 0 0 0 0 0 0 0 0 0 0 0 0 0 0 0 0 0 0 0 0 0 0 0 0 0 0 0 0 0
0 0 0 0 0 0 0 0 0 0 0 0 0 0 0 0 0 0 0 0 0 0 0 0 0 0 0 0 0 0 0 0 0 0 0 0 0 0 0 0 0 0 0 0
0 0 0 0 0 0 0 0 0 0 0 0 0 0 0 0 0 0 0 0 0 0 0 0 0 0 0 0 0 0 0 0 0 0 0 0 0 0 0 0 0 0 0 0
0 0 0 0 0 0 0 0 0 0 0 0 0 0 0 0 0 0 0 0 0 0 0 0 0 0 0 0 0 0 0 0 0 0 0 0 0 0 0 0 0 0 0 0
Height
5796 5802 5808 5814 5819 5824 5827 5830 5834 5839 5841 5842 5844 5847 5851 5851 5853 5854 5855 5857 5858 5861 5863 5864 5865 5866 5866 5866 5865 5863 5860 5857 5854 5852 5850 5847 5843 5841 5840 5837 5835 5833 5832 5830
5791 5797 5803 5807 5811 5816 5820 5824 5830 5835 5837 5837 5838 5840 5844 5846 5847 5848 5850 5851 5853 5855 5856 5858 5859 5861 5861 5861 5860 5858 5855 5852 5849 5846 5843 5839 5836 5833 5832 5829 5827 5826 5824 5822
5786 5793 5797 5801 5804 5809 5813 5818 5823 5827 5828 5829 5831 5834 5838 5841 5841 5843 5844 5845 5846 5848 5850 5852 5853 5855 5855 5855 5854 5852 5850 5847 5843 5840 5835 5831 5828 5825 5823 5822 5821 5819 5817 5815
5780 5786 5790 5794 5798 5802 5807 5812 5814 5817 5820 5822 5823 5825 5831 5834 5836 5837 5838 5838 5840 5842 5844 5846 5847 5848 5849 5849 5848 5846 5843 5841 5837 5833 5829 5825 5819 5815 5814 5814 5813 5812 5810 5808
5775 5781 5785 5789 5793 5797 5802 5804 5806 5809 5811 5815 5816 5819 5824 5827 5830 5832 5832 5832 5833 5835 5837 5839 5841 5842 5842 5842 5841 5839 5837 5834 5831 5826 5822 5817 5813 5809 5807 5806 5805 5805 5803 5802
5769 5775 5778 5782 5787 5790 5794 5796 5799 5801 5805 5809 5813 5814 5817 5821 5823 5824 5825 5825 5826 5828 5830 5832 5834 5834 5835 5834 5833 5832 5829 5826 5822 5817 5812 5808 5805 5802 5800 5799 5798 5798 5797 5796
5765 5769 5772 5776 5780 5784 5787 5790 5793 5796 5799 5804 5808 5809 5811 5814 5815 5816 5818 5819 5820 5821 5823 5825 5826 5827 5827 5826 5825 5824 5821 5817 5814 5809 5804 5801 5797 5795 5794 5793 5792 5791 5790 5789
5760 5765 5768 5772 5776 5779 5783 5786 5790 5793 5796 5800 5802 5803 5806 5808 5809 5809 5811 5812 5813 5815 5816 5817 5818 5819 5819 5818 5817 5815 5812 5810 5806 5802 5798 5795 5793 5791 5788 5787 5785 5785 5783 5782
5755 5760 5764 5768 5773 5777 5779 5782 5786 5789 5791 5794 5796 5798 5800 5802 5803 5804 5805 5806 5807 5809 5810 5810 5811 5811 5811 5811 5809 5807 5805 5802 5799 5795 5793 5790 5787 5784 5781 5780 5779 5777 5776 5773
5751 5755 5759 5764 5768 5771 5775 5778 5781 5783 5785 5788 5790 5792 5795 5796 5797 5799 5800 5802 5803 5804 5804 5805 5805 5804 5804 5803 5801 5800 5797 5794 5792 5788 5785 5782 5780 5777 5775 5773 5771 5769 5767 5764
5750 5753 5756 5759 5763 5767 5770 5773 5775 5778 5780 5783 5785 5790 5789 5790 5792 5793 5795 5797 5798 5799 5799 5799 5798 5797 5796 5795 5793 5792 5789 5787 5784 5781 5778 5775 5772 5770 5767 5765 5763 5760 5757 5753
5748 5750 5753 5756 5758 5761 5763 5766 5770 5773 5775 5778 5780 5785 5784 5785 5786 5787 5789 5790 5791 5792 5792 5791 5791 5790 5788 5787 5785 5784 5781 5779 5776 5773 5770 5767 5764 5762 5759 5756 5753 5749 5745 5741
5744 5747 5750 5752 5755 5756 5757 5760 5763 5767 5769 5772 5774 5779 5778 5779 5780 5781 5782 5782 5783 5784 5784 5783 5783 5782 5780 5779 5777 5774 5772 5769 5766 5764 5761 5758 5755 5752 5749 5745 5742 5737 5733 5728
5739 5741 5744 5747 5748 5750 5752 5754 5757 5761 5763 5765 5767 5769 5770 5771 5772 5773 5774 5774 5775 5775 5775 5774 5774 5773 5771 5769 5767 5765 5762 5760 5757 5754 5752 5749 5745 5741 5737 5734 5729 5725 5720 5715
5732 5733 5735 5738 5740 5742 5744 5747 5749 5752 5755 5757 5758 5760 5761 5762 5763 5764 5764 5765 5765 5765 5765 5764 5764 5763 5761 5759 5757 5755 5752 5749 5746 5744 5741 5738 5734 5729 5725 5721 5716 5712 5707 5701
5723 5725 5727 5729 5731 5733 5736 5739 5742 5744 5746 5748 5750 5751 5752 5752 5753 5754 5754 5755 5755 5755 5755 5754 5753 5752 5751 5749 5747 5744 5741 5738 5735 5732 5729 5725 5721 5717 5713 5708 5704 5699 5693 5688
5714 5716 5718 5720 5721 5723 5727 5730 5732 5735 5736 5738 5740 5742 5742 5742 5743 5744 5744 5745 5745 5745 5744 5744 5743 5741 5740 5737 5735 5732 5730 5726 5723 5720 5716 5712 5708 5704 5700 5696 5691 5686 5680 5675
5706 5707 5709 5710 5712 5715 5719 5720 5722 5724 5726 5729 5731 5732 5732 5732 5732 5733 5733 5734 5735 5735 5734 5733 5732 5730 5728 5725 5723 5720 5717 5714 5711 5707 5703 5699 5695 5691 5687 5682 5677 5673 5668 5663
5700 5700 5701 5703 5704 5706 5709 5711 5713 5715 5717 5720 5722 5722 5722 5722 5722 5723 5724 5724 5724 5724 5723 5722 5720 5718 5715 5713 5710 5707 5704 5701 5697 5693 5689 5686 5682 5678 5673 5669 5664 5660 5655 5651
5694 5695 5696 5696 5698 5700 5703 5704 5705 5708 5710 5712 5712 5713 5714 5714 5715 5715 5715 5714 5713 5712 5711 5710 5708 5706 5703 5700 5697 5694 5691 5687 5684 5680 5677 5673 5669 5664 5660 5656 5652 5648 5643 5639
5690 5690 5690 5691 5692 5694 5696 5697 5699 5703 5703 5703 5704 5704 5705 5706 5706 5706 5704 5703 5703 5702 5700 5699 5697 5694 5692 5689 5685 5682 5678 5675 5671 5668 5664 5660 5656 5652 5648 5644 5640 5635 5631 5627
5687 5686 5686 5686 5687 5690 5689 5690 5693 5694 5695 5695 5695 5696 5696 5696 5696 5695 5694 5693 5692 5691 5690 5688 5686 5683 5680 5677 5674 5670 5667 5663 5659 5656 5652 5648 5644 5640 5636 5632 5628 5624 5619 5615
5684 5684 5683 5684 5685 5685 5685 5685 5686 5687 5687 5688 5688 5688 5688 5688 5687 5687 5686 5685 5684 5682 5681 5679 5676 5673 5670 5666 5663 5659 5655 5651 5648 5644 5641 5637 5633 5629 5625 5621 5616 5612 5607 5603
5682 5681 5680 5680 5680 5680 5681 5681 5681 5681 5681 5681 5681 5681 5681 5681 5680 5680 5679 5677 5676 5674 5672 5669 5666 5663 5660 5656 5652 5649 5645 5642 5638 5634 5630 5626 5622 5618 5614 5609 5605 5601 5596 5592
5679 5678 5678 5677 5677 5676 5676 5676 5676 5675 5675 5675 5674 5674 5673 5673 5672 5672 5670 5669 5667 5665 5663 5660 5657 5654 5651 5647 5644 5640 5637 5633 5629 5624 5620 5616 5611 5607 5603 5599 5595 5591 5588 5584
5676 5675 5675 5674 5673 5672 5671 5670 5670 5669 5668 5668 5667 5666 5666 5666 5665 5664 5663 5661 5659 5657 5655 5653 5650 5647 5644 5641 5637 5633 5629 5624 5620 5615 5610 5606 5602 5598 5594 5591 5588 5584 5581 5577
Wind_Speed
38 37 37 35 35 36 39 40 40 39 41 42 41 37 34 35 34 35 35 35 35 34 30 27 25 23 22 23 26 28 30 32 32 31 31 32 32 30 30 31 31 32 34 34
37 37 34 34 36 37 38 39 38 38 41 45 45 43 39 38 38 37 36 36 35 35 34 31 29 26 25 25 27 29 31 33 33 33 34 34 34 31 30 29 30 30 32 33
35 33 33 34 35 36 37 36 35 37 41 44 45 45 43 40 39 38 36 35 35 34 34 33 31 28 27 26 27 30 33 35 35 36 36 36 37 35 32 30 26 27 29 29
34 32 32 33 34 34 33 31 33 36 39 41 43 44 42 40 39 38 37 36 35 34 34 33 32 30 29 28 30 33 36 38 37 38 37 38 39 36 33 28 25 24 25 26
31 30 30 32 32 32 27 28 31 34 37 39 41 42 40 39 38 37 37 37 36 35 34 34 33 32 32 33 34 37 40 40 39 40 39 39 38 35 32 26 22 21 23 26
31 30 32 32 30 30 27 30 33 34 36 37 36 39 39 36 36 36 37 38 37 36 35 34 34 35 35 37 39 42 41 40 40 40 39 38 37 33 29 24 23 24 26 30
29 31 34 34 33 33 32 33 34 34 36 35 32 36 37 34 34 35 35 36 36 36 35 34 35 36 38 40 41 40 39 39 39 40 40 39 36 32 30 27 26 28 31 34
27 29 32 32 33 33 33 34 35 35 34 31 31 33 32 30 30 32 32 32 32 32 33 34 34 35 36 37 36 35 36 37 38 38 37 36 35 33 31 30 30 32 35 39
24 25 27 28 28 31 32 33 32 33 32 30 31 31 30 27 26 28 29 29 29 29 29 30 30 30 31 31 32 33 34 35 36 36 37 38 38 34 33 33 34 37 40 44
22 22 24 25 29 32 33 32 32 32 31 30 31 28 26 25 25 26 27 28 28 28 28 28 29 29 30 30 31 33 35 36 38 38 38 39 39 38 38 38 40 43 46 49
19 21 24 27 31 34 35 35 34 33 31 29 28 27 25 26 27 28 28 28 28 28 28 29 29 30 32 33 35 36 38 40 41 41 40 39 38 38 40 41 43 47 50 52
20 20 24 29 31 34 36 37 35 34 32 30 29 28 27 27 28 28 28 28 27 27 27 29 30 32 34 36 38 40 42 43 43 43 42 40 39 41 43 44 46 49 52 54
23 23 24 28 31 33 35 36 36 35 34 33 32 32 30 30 30 30 29 29 28 28 29 30 32 34 36 39 41 43 44 45 44 43 41 40 41 43 45 47 49 51 54 56
28 29 28 30 32 33 34 36 36 36 36 36 36 37 36 36 35 34 33 32 32 31 31 33 35 37 39 41 43 44 44 44 42 41 41 43 45 46 48 49 51 53 56 58
33 33 33 33 35 36 35 36 36 37 38 38 38 39 41 42 40 38 37 36 35 35 36 37 39 41 42 44 45 46 45 43 43 44 45 47 48 49 50 51 53 54 57 59
36 37 37 37 38 40 40 39 40 40 39 40 42 43 44 43 43 41 40 39 38 39 39 41 42 43 44 44 46 46 47 47 47 47 46 47 48 49 50 51 53 54 56 57
34 36 38 39 40 41 43 43 43 43 42 42 42 43 45 43 42 41 40 38 38 38 38 39 41 43 44 46 48 49 49 48 48 47 46 47 47 48 49 51 52 53 54 54
29 32 35 37 39 40 39 38 38 39 39 39 40 39 39 38 37 37 37 37 38 40 42 44 46 47 49 50 50 50 49 49 48 47 46 46 46 47 49 50 50 51 52 52
23 26 29 31 33 36 35 33 32 32 32 32 34 34 34 34 34 35 36 38 40 43 45 46 48 49 50 50 50 50 50 48 47 45 45 45 46 47 48 48 48 49 49 50
19 20 23 25 27 28 28 28 27 28 29 29 30 32 33 35 35 36 37 39 41 42 44 45 47 48 49 49 49 48 47 45 43 43 43 44 45 46 46 46 47 47 48 48
16 16 18 20 22 23 24 24 24 25 27 29 31 32 34 35 36 37 39 40 41 42 43 44 45 46 46 46 45 44 43 42 42 42 43 43 43 44 44 45 45 46 46 47
14 14 14 15 16 16 18 20 22 23 24 26 28 30 32 34 35 36 37 37 38 39 40 41 41 41 41 41 41 41 41 41 41 41 41 41 41 42 42 43 44 44 45 45
13 13 13 14 14 14 15 17 19 20 22 24 26 28 29 30 31 32 33 33 34 36 37 37 38 39 39 39 39 39 38 38 38 38 38 38 39 40 41 42 43 43 42 41
12 12 13 13 14 15 16 17 18 20 22 23 25 26 27 29 30 30 31 32 33 34 35 36 36 36 36 35 34 33 34 34 34 35 36 37 38 40 40 40 40 39 36 34
13 12 13 13 14 16 17 18 20 21 23 24 26 27 28 29 30 31 31 31 32 32 31 31 30 28 27 27 27 28 30 31 33 35 36 37 38 38 37 35 33 31 29 27
14 14 15 15 16 17 18 20 21 23 24 25 26 27 27 27 27 27 26 26 25 24 23 21 20 20 21 23 24 26 29 31 33 34 35 34 33 32 30 28 27 26 25 25
Wind_Direction
228 227 226 227 229 229 230 231 231 231 235 239 244 248 248 249 252 255 255 255 257 260 262 263 267 273 282 290 297 303 307 308 306 304 302 297 293 286 285 283 278 275 274 276
228 228 225 224 226 228 231 232 232 232 234 238 243 248 250 251 253 253 254 256 257 258 258 262 267 272 278 284 290 298 303 302 300 298 296 293 293 289 287 287 283 278 276 278
229 227 225 225 227 229 231 232 233 231 232 237 242 245 249 250 251 252 256 258 258 256 256 258 263 269 273 279 288 295 298 299 296 294 291 286 287 288 288 287 285 280 276 276
227 224 223 225 227 229 230 231 232 233 234 237 242 246 247 249 249 251 255 258 257 255 255 257 261 266 272 280 285 291 294 296 293 291 289 285 289 285 289 288 284 280 280 285
227 224 223 224 227 230 229 229 230 233 236 239 243 249 250 250 250 251 254 258 259 258 257 257 261 267 273 279 284 288 291 292 289 287 288 288 292 292 292 289 285 288 292 298
222 220 221 222 223 226 222 224 228 232 237 240 243 250 255 255 254 254 255 257 260 261 261 262 265 269 273 277 281 285 286 285 285 286 287 290 291 298 297 293 292 297 300 302
223 221 222 222 221 221 218 220 226 231 237 241 242 249 254 257 257 257 257 257 259 261 264 265 267 269 271 274 277 279 280 282 285 288 290 293 300 300 293 294 298 302 303 303
222 222 224 225 224 224 221 223 228 233 238 241 242 248 252 255 255 255 257 258 259 260 261 262 264 266 268 271 273 275 277 281 286 290 294 301 304 301 298 298 300 301 301 302
219 220 223 225 222 221 221 224 230 237 240 242 243 246 249 250 249 250 252 256 259 261 262 263 263 264 266 269 272 275 279 283 289 294 298 301 301 298 298 298 299 299 299 299
218 214 212 212 211 215 220 222 227 234 238 241 242 243 247 246 247 249 250 253 258 261 262 264 266 269 272 275 278 280 283 287 291 293 296 298 298 297 296 296 296 297 297 298
225 217 203 204 207 211 217 222 228 234 239 242 244 245 249 254 254 254 255 257 260 262 264 267 272 276 279 282 285 286 288 289 290 290 292 294 296 298 297 296 295 295 295 297
234 228 209 207 210 216 222 226 230 237 240 243 248 251 253 259 260 260 261 262 263 264 266 270 274 278 282 285 288 290 290 290 288 288 291 293 294 295 296 295 295 295 296 296
243 238 226 217 219 222 228 231 235 238 243 247 249 252 255 259 261 262 263 263 263 265 268 272 277 281 284 286 289 291 291 288 287 286 289 292 294 295 295 295 295 295 295 296
248 246 240 233 232 233 236 239 240 242 244 247 249 252 253 256 257 259 261 262 264 267 272 276 281 283 286 288 289 290 290 289 287 287 291 294 295 295 295 295 295 295 295 295
254 253 250 245 241 240 242 243 243 245 246 248 249 250 253 254 254 256 258 260 264 268 274 280 284 286 288 288 289 290 289 290 292 294 295 295 295 294 294 294 294 294 294 295
255 254 253 250 248 245 244 244 245 247 248 249 250 251 252 251 252 253 255 259 264 269 275 280 284 286 287 287 289 289 291 294 297 296 295 294 292 292 292 292 292 292 293 294
258 257 254 252 251 251 247 245 245 246 249 252 253 254 253 252 254 256 259 264 268 273 277 281 283 285 286 288 291 294 296 297 297 296 294 292 291 290 290 290 291 292 293 294
262 261 260 260 260 259 256 254 253 252 253 255 259 262 267 268 268 268 270 273 275 277 280 282 284 286 288 290 293 295 295 295 295 294 292 290 289 289 290 291 292 292 293 294
270 264 262 263 265 268 270 271 270 269 268 268 269 270 272 274 275 276 277 278 279 279 281 283 286 288 290 292 294 294 295 295 293 291 289 288 288 289 291 292 292 292 293 294
277 270 265 263 263 266 269 271 272 273 272 271 270 270 271 273 274 275 276 277 278 280 283 285 287 289 291 293 294 294 294 293 291 289 288 288 289 290 291 291 292 292 293 294
283 276 270 266 264 263 265 266 267 266 265 266 266 267 270 272 274 277 279 280 282 283 285 287 289 290 291 292 292 292 291 290 289 289 289 290 290 290 291 292 292 293 294 294
287 281 275 269 265 263 263 263 263 264 265 266 267 269 271 273 275 277 278 280 282 284 286 287 289 290 290 290 289 289 288 288 288 289 289 289 289 290 291 292 293 294 294 296
289 282 275 269 264 261 259 261 264 266 266 267 269 270 272 273 275 276 278 280 281 283 285 286 287 287 288 288 288 288 288 289 289 289 289 290 290 291 292 293 294 295 297 298
296 287 281 275 269 265 264 264 263 264 266 268 268 269 271 272 274 276 278 280 282 283 284 285 286 287 287 288 288 288 289 289 291 292 292 293 293 294 295 296 297 298 300 301
297 292 287 281 276 272 270 268 267 267 268 268 269 270 272 274 275 277 279 281 283 285 286 287 289 290 291 292 293 293 294 294 294 295 295 295 296 297 298 299 300 301 301 301
297 295 293 288 282 279 276 275 274 273 273 273 273 273 274 275 277 279 282 285 287 289 292 294 296 298 298 299 299 298 298 298 298 298 298 299 300 300 301 302 303 303 303 304